Location: Tokyo Bay
(35.2731°N, 114.5825°W)
Time: 19:55:54
(UTC+00:00)

Daily predictions for brighter satellites

Satellite Brightness Start Highest point End
(mag) Time Altitude Azimuth Time Altitude Azimuth Time Altitude Azimuth
Hubble Space Telescope 3.4 12:03:12 11° SSE 12:03:24 11° SSE 12:04:42 10° SE
In-Cosmos 22 Rocket 4.4 12:02:26 10° S 12:08:12 74° E 12:13:59 10° NNE
IRS-1D 4.0 12:15:27 10° NNE 12:20:18 56° ESE 12:25:08 10° S
Cosmos 1812 3.9 12:22:44 27° SE 12:22:44 27° SE 12:24:20 10° SSE
SJ 16-02 1.4 12:22:31 58° SSW 12:22:31 58° SSW 12:26:03 10° S
Meteor 1-21 Rocket 4.2 12:16:38 10° S 12:22:23 82° E 12:28:02 10° N
SL-16 R/B 2.7 12:24:24 39° NW 12:24:24 39° NW 12:28:44 10° N
Cosmos 1110 Rocket 3.9 12:20:41 10° SSW 12:25:57 86° WNW 12:31:17 10° NNE
Cosmos 1869 4.1 12:31:43 33° S 12:31:43 33° S 12:33:48 10° S
Aureole 3 4.2 12:28:40 10° SSW 12:34:21 48° W 12:39:09 10° N
NOSS 7 (E) 4.4 12:39:16 63° SW 12:39:16 63° SW 12:43:04 10° SSE
Cosmos 304 Rocket 3.8 12:39:00 43° WNW 12:40:02 52° WSW 12:44:38 10° S
Cosmos 1025 Rocket 3.9 12:35:55 10° S 12:40:08 51° E 12:44:21 10° NNE
Cosmos 371 Rocket 3.3 12:39:48 39° NW 12:41:11 53° WSW 12:45:51 10° S
OAO 1 4.4 12:39:24 39° W 12:41:30 89° S 12:46:58 10° E
Cosmos 2233 Rocket 4.4 12:42:19 17° NNW 12:46:28 38° W 12:52:05 10° SSW
SKYMED 2 3.9 12:46:10 10° SSE 12:50:27 66° ENE 12:54:47 10° N
Cosmos 1400 Rocket 2.8 12:47:36 10° N 12:51:14 70° E 12:54:51 10° SSE
Okean 2 Rocket 4.1 12:47:01 10° N 12:51:15 47° E 12:55:29 10° SSE
Cosmos 2061 Rocket 4.4 12:47:19 10° NNW 12:52:55 37° W 12:58:31 10° SSW
Cosmos 1674 Rocket 3.5 12:52:09 10° SSW 12:56:31 67° W 13:00:56 10° N
Cosmos 1818 3.5 12:52:58 10° SSW 12:58:23 83° WNW 13:03:50 10° NNE
H-2A R/B 3.1 13:00:05 16° SW 13:01:37 26° S 13:06:47 10° ESE
Cosmos 1464 Rocket 4.1 12:57:18 10° N 13:03:27 78° E 13:09:34 10° S
Cosmos 1452 Rocket 3.6 12:58:26 10° SSW 13:03:31 52° WNW 13:08:37 10° N
Cosmos 2263 4.4 13:00:04 10° NNW 13:05:52 79° ENE 13:11:36 10° SSE
Cosmos 1943 3.3 13:04:53 10° SW 13:10:18 50° WNW 13:15:45 10° N
Cosmos 332 Rocket 3.9 13:06:14 10° NNW 13:11:02 76° ENE 13:15:45 10° SSE
Atlas Centaur 2 4.2 13:05:31 10° SW 13:12:07 31° SSE 13:17:52 10° E
Cosmos 1850 Rocket 3.9 13:08:28 10° NNW 13:13:39 87° WSW 13:18:49 10° SSE
Chandra Rocket (1) 4.4 13:09:51 13° WSW 13:14:23 40° S 13:30:09 10° ESE
Cosmos 2369 Rocket 2.2 13:09:17 10° NNW 13:14:54 63° WSW 13:20:31 10° S
NOAA 12 4.2 13:09:50 10° N 13:14:58 50° WNW 13:20:03 10° SSW
CZ-4 R/B 4.1 13:10:31 10° N 13:15:00 41° WNW 13:19:23 10° SW
Cosmos 2297 3.7 13:10:25 10° NNW 13:15:59 64° WSW 13:21:30 10° S
Meteor 1-11 4.4 13:11:16 10° SSW 13:16:59 55° W 13:22:43 10° N
Cosmos 2034 Rocket 4.5 13:11:05 10° N 13:17:25 67° E 13:23:44 10° SSE
Cosmos 1603 3.8 13:11:41 10° SSW 13:17:26 86° ESE 13:23:11 10° NNE
Cosmos 2221 Rocket 3.8 13:22:00 10° SSW 13:26:23 49° W 13:30:47 10° N
Cosmos 2151 Rocket 4.1 13:30:28 10° NNW 13:34:34 37° W 13:38:38 10° SSW
Lacrosse 5 rocket 2.0 13:34:54 10° NNW 13:38:01 36° NE 13:41:04 10° ESE
CBERS-1 4.0 13:34:51 10° NNE 13:39:59 84° WNW 13:45:04 10° SSW
Lacrosse 4 Rocket 2.7 13:36:45 10° N 13:40:24 36° ENE 13:44:00 10° SE
Okean 1 Rocket 3.2 13:37:35 10° NNW 13:41:45 50° W 13:45:54 10° SSW
Hubble Space Telescope 2.5 13:39:37 10° SW 13:42:44 24° S 13:45:53 10° ESE
Helios 1A Rocket 3.4 13:40:25 10° SSW 13:43:18 26° W 13:46:11 10° NW
USA 267 4.4 13:39:12 10° NNE 13:44:08 24° NNW 13:49:05 10° WNW
Iridium 45 4.3 13:41:42 10° N 13:44:54 83° E 13:48:11 10° S
Sich 1 Rocket 3.9 13:42:30 10° NNW 13:46:47 44° W 13:50:59 10° SSW
NOSS 3-2 (A) 4.5 13:40:10 10° NNW 13:48:02 77° ENE 13:57:13 10° SE
CZ-2D R/B 4.1 13:45:02 10° NNE 13:48:05 44° E 13:51:07 10° S
Cosmos 1484 Rocket 3.1 13:45:26 10° N 13:48:39 34° WNW 13:51:49 10° SW
COSMO-SKYMED 1 3.2 13:45:23 10° SSW 13:49:06 33° W 13:52:51 10° NNW
Cosmos 968 Rocket 4.4 13:45:08 10° NW 13:49:33 28° W 13:53:59 10° SSW
SMAP 3.5 13:46:12 10° NNE 13:50:51 71° E 13:55:28 10° S
